EHI
0 0 0 0 0 0 0 0 0 0 0 1 3 5 9 13 16 18 24 32 37 39 41 47 52 52 48 43 41 41 40 39 38 35 29 22 16 14 15 18 20 19 17 16
0 0 0 0 0 0 0 0 0 0 0 1 2 3 7 12 15 17 21 28 35 39 44 49 51 48 44 41 39 38 38 38 35 32 27 21 16 14 13 15 18 18 17 16
0 0 0 0 0 0 0 0 0 0 0 1 1 1 5 11 14 15 18 24 32 39 46 50 50 45 41 39 37 34 35 34 31 27 23 19 16 14 13 15 16 17 16 16
0 0 0 0 0 0 0 0 0 0 0 0 0 0 4 11 15 17 19 23 30 38 45 49 49 46 42 39 35 32 31 30 27 24 21 18 16 15 15 17 17 17 16 16
0 0 0 0 0 0 0 0 0 0 0 0 0 0 4 11 15 16 18 23 30 36 43 48 50 48 44 38 34 30 30 28 25 21 19 17 15 14 15 16 17 17 15 14
0 0 0 0 0 0 0 0 0 0 0 0 0 0 4 8 10 12 18 24 30 36 43 48 50 48 43 37 32 28 28 26 21 17 16 15 15 14 14 14 15 15 14 14
0 0 0 0 0 0 0 0 0 0 0 0 0 1 5 8 10 15 23 27 31 38 44 46 46 44 39 35 30 26 23 20 16 13 13 14 14 13 12 12 12 12 13 13
0 0 0 0 0 0 0 0 0 0 0 0 0 2 7 12 15 21 28 30 31 37 42 43 42 40 36 32 29 24 19 15 13 12 12 13 12 10 9 9 9 10 11 11
0 0 0 0 0 0 0 0 0 0 0 0 0 2 7 12 17 21 24 27 31 36 39 39 39 38 34 30 27 23 19 14 12 11 11 11 10 8 7 7 7 8 8 8
0 0 0 0 0 0 0 0 0 0 0 0 0 1 5 9 12 14 18 24 30 35 35 35 36 35 30 27 24 21 18 14 12 10 9 9 8 7 6 6 6 6 6 6
0 0 0 0 0 0 0 0 0 0 0 0 0 1 3 7 9 10 16 24 29 32 33 34 34 31 25 21 20 17 14 13 11 9 8 8 7 6 5 5 5 5 4 3
0 0 0 0 0 0 0 0 0 0 0 0 0 1 4 6 8 10 16 25 29 30 32 33 32 26 19 15 14 12 10 9 8 7 7 7 6 4 3 3 3 2 1 1
0 0 0 0 0 0 0 0 0 0 0 0 0 2 4 6 7 10 16 24 29 31 31 29 27 22 16 12 10 9 7 7 6 6 5 4 3 2 1 1 1 0 0 0
0 0 0 0 0 0 0 0 0 0 0 0 1 2 3 4 6 11 17 23 28 30 28 25 23 20 15 11 8 7 6 6 5 4 3 1 1 0 0 0 0 0 0 0
0 0 0 0 0 0 0 0 0 0 0 0 1 1 2 3 7 14 20 24 26 28 25 21 20 18 14 9 6 5 4 4 4 3 2 1 0 0 0 0 0 0 0 0
0 0 0 0 0 0 0 0 0 0 0 0 0 1 2 4 9 17 22 23 23 23 21 18 16 16 13 8 5 4 3 3 3 2 1 1 1 0 0 0 0 0 0 0
0 0 0 0 0 0 0 0 0 0 0 0 1 3 4 5 10 18 22 21 20 19 18 16 15 15 12 8 6 5 4 3 3 2 1 1 1 0 0 0 0 0 0 0
0 0 0 0 0 0 0 0 0 0 0 1 2 4 4 5 10 17 20 20 19 18 17 17 16 15 12 8 6 5 4 3 3 2 1 0 0 0 0 0 0 0 0 0
0 0 0 0 0 0 0 0 0 0 0 1 3 4 3 4 7 12 17 19 18 17 18 18 16 13 10 7 6 4 3 3 3 1 0 0 0 0 0 0 1 1 1 0
0 0 0 0 0 0 0 0 0 0 0 1 3 3 3 3 5 11 17 19 18 18 19 18 14 11 8 7 6 4 3 3 2 1 0 0 0 0 0 1 2 2 2 1
0 0 0 0 0 0 0 1 1 1 1 3 4 4 5 6 10 15 19 20 19 19 18 15 12 9 7 6 5 4 3 3 2 1 0 0 0 0 1 2 3 3 3 3
0 0 0 0 0 0 0 1 2 2 3 5 6 6 7 12 15 17 19 20 20 18 15 12 10 7 5 5 4 3 3 3 1 0 0 0 0 0 1 2 2 2 2 2
0 0 0 0 0 0 0 1 2 3 4 5 6 6 9 14 16 16 17 19 18 14 11 9 7 5 3 2 2 3 3 2 1 0 0 0 0 0 0 1 1 1 1 1
0 0 0 0 0 0 0 1 2 2 2 2 3 4 7 12 15 16 16 16 15 11 9 8 6 4 2 1 1 1 2 2 1 0 0 0 0 0 0 0 0 0 0 0
0 0 0 0 0 0 0 0 1 1 1 0 1 1 5 9 13 14 14 14 13 11 9 8 6 3 1 0 0 0 1 1 1 0 0 0 0 0 0 0 0 0 0 0
0 0 0 0 0 0 0 0 0 0 0 0 0 0 3 8 12 12 12 13 13 11 10 9 7 3 0 0 0 0 0 1 0 0 0 0 0 0 0 0 0 0 0 0
Wind_Speed
10 9 8 7 6 6 6 6 7 5 5 6 7 8 11 13 11 10 9 10 10 10 10 10 9 8 7 6 6 6 5 4 3 2 2 1 1 1 1 1 1 2 2 3
9 10 8 5 4 8 8 6 5 4 4 5 7 8 9 12 13 10 9 9 9 9 10 10 9 8 7 7 6 6 5 4 2 1 1 1 1 0 1 1 1 2 2 2
8 5 3 4 6 8 7 5 5 5 5 7 8 9 10 11 11 10 9 8 9 9 10 10 9 8 7 7 6 5 4 4 2 2 1 1 1 0 0 1 1 1 2 2
7 6 5 6 7 6 7 4 4 6 6 6 9 8 8 10 10 8 6 7 7 9 10 10 9 8 8 7 7 6 5 4 3 2 2 1 1 0 0 1 1 1 1 1
7 7 6 7 6 5 8 5 6 8 9 9 8 9 4 8 8 8 7 8 8 10 10 11 11 9 8 7 7 6 5 4 3 2 2 1 0 0 1 1 0 1 1 0
10 7 6 7 6 5 7 8 9 9 8 10 8 8 5 5 6 7 8 9 9 8 9 9 9 8 7 7 6 6 5 4 3 2 2 1 0 0 0 1 1 1 1 0
10 8 7 7 7 7 8 8 6 6 5 7 7 7 3 2 4 5 7 7 9 10 10 10 9 8 7 6 6 5 5 4 3 3 2 1 1 1 1 1 1 1 1 0
9 7 7 7 7 8 8 9 7 7 9 8 5 5 1 5 7 7 7 7 8 9 9 9 9 8 7 6 5 6 5 4 3 3 2 2 1 1 1 1 2 1 1 1
8 8 7 6 7 8 10 8 7 8 11 10 5 2 3 3 6 7 6 5 7 7 8 8 8 7 7 7 6 6 5 4 3 3 3 3 2 1 1 1 2 1 1 1
8 11 10 8 8 9 10 8 5 6 7 9 7 3 1 2 4 5 5 5 6 7 7 7 7 6 5 5 4 4 4 4 3 3 2 2 1 1 1 1 1 1 1 2
8 9 10 10 9 8 9 10 8 7 8 9 8 3 2 2 3 5 5 6 7 7 8 8 7 7 6 5 5 4 3 3 3 2 2 1 1 0 1 1 0 0 0 1
6 6 8 10 10 11 10 9 8 8 8 9 8 3 1 1 3 4 5 6 7 8 8 8 8 7 6 5 5 4 4 3 2 2 2 1 1 0 0 0 0 0 0 1
7 5 8 7 6 7 9 10 11 9 8 9 9 2 3 2 3 4 5 6 7 8 9 8 7 7 6 5 4 4 3 3 2 2 2 2 1 0 0 0 0 1 1 1
5 7 9 10 9 10 11 12 13 10 8 8 7 4 3 3 3 4 6 7 8 8 8 7 7 6 5 5 4 4 3 3 3 2 2 2 1 0 0 0 0 0 0 1
5 9 11 12 11 13 14 13 11 10 9 9 7 4 3 1 3 5 6 7 8 8 7 8 7 6 5 5 4 4 3 2 2 2 2 2 2 1 0 1 1 0 0 1
4 8 11 13 12 13 14 12 10 10 9 8 6 4 2 2 3 6 7 7 7 7 7 7 8 7 6 6 5 4 4 3 3 2 2 2 3 2 1 1 1 1 1 2
7 9 11 12 11 12 13 10 10 8 7 7 6 2 2 3 2 3 6 7 7 7 7 7 7 7 6 6 5 4 4 4 3 3 2 3 3 3 2 1 2 1 1 1
10 10 8 11 11 13 8 7 6 5 5 4 3 2 1 3 3 2 4 7 6 6 7 7 6 7 6 6 5 4 4 3 3 3 3 3 3 3 2 2 1 1 1 1
10 9 9 9 10 10 9 7 6 5 4 2 1 2 3 4 4 4 4 6 6 6 6 6 6 6 6 6 5 5 4 3 3 3 2 3 3 2 2 2 1 0 1 1
8 8 9 10 11 10 7 6 6 5 4 2 2 1 1 2 2 3 5 6 7 6 6 6 6 7 6 6 5 5 4 3 3 3 2 2 2 2 2 2 2 1 1 2
7 8 11 11 10 8 7 6 5 5 1 3 2 1 1 2 2 5 6 6 7 7 7 7 7 6 6 6 5 5 4 3 3 2 2 2 1 1 1 2 1 2 2 2
8 8 8 8 9 7 3 4 3 2 2 2 2 3 5 6 7 6 7 7 8 8 8 8 7 6 6 6 5 5 3 2 2 2 2 2 1 1 1 1 1 2 2 3
7 6 5 5 4 3 3 2 1 2 2 2 3 4 6 6 6 6 6 7 8 8 8 7 7 7 6 6 5 5 3 3 3 2 2 2 2 1 1 2 2 2 3 3
6 6 6 5 4 4 4 3 3 2 1 1 2 4 6 5 6 6 5 6 7 7 7 7 7 7 6 6 5 4 4 4 3 3 2 2 2 2 2 2 2 2 2 2
9 7 7 6 6 5 3 3 3 2 2 2 3 3 5 6 6 6 5 5 6 7 6 6 6 6 6 6 5 5 5 4 3 3 2 2 3 3 2 2 2 2 2 1
9 8 8 7 6 6 5 4 3 2 2 1 2 2 4 5 6 7 6 5 6 7 7 6 6 6 6 6 6 5 5 4 4 3 3 3 3 3 3 3 3 4 5 5
Wind_Direction
218 233 241 232 225 271 278 261 258 258 228 221 218 201 186 184 196 194 185 173 171 167 159 150 145 141 137 134 131 130 126 119 122 121 126 142 149 139 116 103 75 33 0 343
226 230 240 234 231 261 259 247 249 255 248 248 242 219 202 194 196 195 189 175 170 162 154 152 149 147 145 141 139 135 131 129 125 108 109 136 118 100 100 73 61 43 13 346
252 250 232 234 234 250 259 255 259 232 234 238 246 239 216 201 194 191 190 180 176 171 163 156 155 156 149 141 138 134 129 130 126 112 98 78 87 87 70 88 80 45 18 3
262 259 243 238 242 255 274 258 269 270 254 250 240 247 214 199 188 185 183 182 179 173 166 158 161 161 151 144 140 134 128 127 123 116 110 122 159 153 80 68 71 38 359 359
265 259 249 255 253 245 277 294 274 267 266 269 268 273 236 192 178 183 183 186 180 176 166 163 161 157 149 146 142 135 130 130 126 135 140 150 95 67 61 56 348 284 283 315
267 264 265 274 282 270 275 281 269 262 267 270 266 265 252 207 192 189 175 171 170 163 145 144 146 149 148 144 141 138 137 138 143 156 152 163 151 196 270 292 268 270 263 258
262 245 238 247 259 256 260 272 276 273 253 260 274 266 235 164 147 161 157 158 157 145 140 144 148 152 143 141 142 142 146 152 159 160 163 186 200 237 238 260 282 281 275 317
287 270 238 232 247 263 256 261 274 294 295 292 262 250 90 77 84 92 105 116 129 138 143 147 151 151 147 151 157 152 155 158 167 171 178 184 214 249 266 283 286 289 318 338
303 299 282 248 247 258 266 269 275 276 280 289 280 262 125 101 95 97 106 123 128 135 140 144 142 144 147 158 162 160 157 161 172 178 182 181 182 215 287 288 284 322 308 296
295 295 292 284 257 246 264 279 288 284 293 290 280 293 327 170 150 147 158 149 130 131 138 136 131 132 126 134 137 138 156 165 170 170 179 163 166 199 251 276 319 4 348 350
295 286 289 290 279 290 276 268 269 278 285 293 301 308 173 206 164 155 156 145 139 138 134 131 130 130 130 133 133 141 153 155 165 163 157 148 147 209 282 263 249 354 358 326
296 293 291 291 307 308 292 287 285 283 283 287 291 290 114 139 120 133 127 125 125 124 126 131 132 133 135 138 142 147 148 144 144 132 128 110 97 51 336 346 356 343 309 305
325 304 292 291 299 308 302 292 285 287 289 285 289 296 105 123 105 109 116 129 131 130 131 133 135 137 142 143 142 143 143 140 139 126 117 103 105 65 26 343 322 359 345 337
289 280 283 286 289 296 292 295 296 291 288 292 297 282 245 169 148 146 141 143 140 136 137 141 139 140 143 144 146 142 141 143 147 139 138 132 131 122 155 246 105 38 335 302
294 277 281 279 269 271 276 284 291 291 292 293 299 275 261 209 167 149 145 145 142 144 147 147 146 148 152 153 148 144 145 154 155 160 163 159 154 139 155 142 101 146 268 304
306 290 290 285 281 281 279 279 282 278 280 288 293 300 51 85 119 136 141 148 151 156 157 155 155 156 162 161 158 158 160 165 164 173 178 161 152 158 166 129 108 69 24 4
274 277 284 283 284 288 278 280 280 290 314 313 307 328 104 106 94 141 155 161 162 166 157 157 161 161 161 163 162 167 162 164 172 180 185 167 163 163 154 130 91 61 26 360
256 266 273 275 278 270 277 291 300 302 303 321 347 63 77 103 104 126 149 155 154 156 156 160 159 155 157 158 159 162 167 171 170 179 187 172 170 161 152 133 111 89 5 329
229 241 259 269 268 265 270 283 290 289 294 340 39 75 83 101 116 135 134 142 146 149 147 146 150 152 153 155 159 163 166 168 175 184 185 179 172 157 157 140 136 167 262 292
226 220 241 257 267 270 277 288 285 285 266 42 66 95 119 153 204 144 135 141 140 138 140 145 150 150 152 156 160 164 167 173 185 184 186 169 161 164 162 149 171 211 265 269
250 238 241 252 259 264 284 301 291 272 24 43 51 100 125 112 78 118 136 140 136 138 144 149 150 150 153 156 160 165 170 178 184 182 174 154 152 163 167 166 189 222 250 268
270 267 262 259 256 260 309 314 317 36 70 84 92 90 90 100 107 124 129 138 144 147 151 154 152 150 152 157 163 167 169 169 172 172 167 153 156 213 181 178 223 241 252 261
283 297 300 291 277 314 338 340 342 79 83 92 107 114 113 119 126 128 132 144 150 150 147 150 152 150 153 160 164 166 164 167 171 169 162 165 184 203 211 208 229 241 246 255
281 302 288 282 282 307 318 344 358 16 42 79 94 127 132 136 135 131 137 149 150 148 146 151 159 159 158 163 167 167 167 170 175 175 178 189 199 207 221 244 250 256 272 269
287 289 286 286 284 288 298 318 316 9 28 96 101 123 140 147 143 140 141 153 156 152 153 158 164 164 164 166 167 171 170 173 179 176 187 212 220 214 213 225 257 270 290 297
266 269 270 267 266 283 275 269 286 307 297 233 146 135 142 144 145 147 153 160 162 157 157 162 166 169 168 168 168 170 174 176 182 190 200 220 229 218 214 216 229 238 241 244